Location: Burbank
(38.7788°N, 114.0429°W)
Time: 08:31:39
(UTC+00:00)

Courier 1B Rocket - Pass Details

Date: 17 May 2026
Orbit: 920 x 1201 km, 28.2° (Epoch: 11 June)

Event Time Altitude Azimuth Distance (km) Brightness Sun altitude
Rises 12:45:21 0° 202° (SSW) 3,587 7.5 3.3°
Reaches altitude 10° 12:50:52 10° 163° (SSE) 2,608 7.2 4.3°
Maximum altitude 12:51:51 10° 154° (SSE) 2,578 7.3 4.5°
Drops below altitude 10° 12:52:49 10° 145° (SE) 2,602 7.5 4.7°
Sets 12:58:16 0° 106° (ESE) 3,550 8.9 5.6°
